Findlay, OH

12:02 PM EDT on July 28, 2016 (GMT -0400)
Findlay

Weather History for KFDY - September, 2012

Change the Weather History Date:

Tuesday, September 11, 2012

  Actual Average Record
Temperature  
Mean Temperature 64 °F -  
Max Temperature 77 °F 75 °F 95 °F (1952)
Min Temperature 51 °F 55 °F 37 °F (1993)
Degree Days  
Heating Degree Days 1    
Growing Degree Days 14 (Base 50)    
Moisture  
Dew Point 51 °F    
Average Humidity 65    
Maximum Humidity 86    
Minimum Humidity 38    
Precipitation  
Precipitation 0.00 in - - ()
Sea Level Pressure  
Sea Level Pressure 30.21 in    
Wind  
Wind Speed 6 mph (South)    
Max Wind Speed 13 mph    
Max Gust Speed 24 mph    
Visibility 10 miles    
Events      
Averages and records for this station are not official NWS values.
T = Trace of Precipitation, MM = Missing Value Source: NWS Daily Summary

Daily Weather History Graph

Daily Weather History Graph

Search for Another Location

Airport or City:

Trip Planner

Search our weather history database for the weather conditions in past years. The results will help you decide how hot, cold, wet, or windy it might be!

Date:

Astronomy

Sep. 11, 2012 Rise Set
Actual Time 7:11 AM EDT 7:49 PM EDT
Civil Twilight 6:43 AM EDT 8:17 PM EDT
Nautical Twilight 6:11 AM EDT 8:50 PM EDT
Astronomical Twilight 5:37 AM EDT 9:23 PM EDT
Moon 2:26 AM EDT (9/11) 5:00 PM EDT (9/11)
Length of Visible Light 13h 33m
Length of Day
12h 38m
Waning Crescent, 21% of the Moon is Illuminated
Sep 11
Waning Crescent
Sep 15
New
Sep 22
First Quarter
Sep 29
Full
Oct 8
Last Quarter

Hourly Weather History & Observations

Time (EDT) Temp. Dew Point Humidity Pressure Visibility Wind Dir Wind Speed Gust Speed Precip Events Conditions
12:53 AM 54.0 °F 48.0 °F 80% 30.17 in 10.0 mi ESE 3.5 mph - N/A   Clear
1:53 AM 53.1 °F 48.0 °F 83% 30.18 in 10.0 mi Calm Calm - N/A   Clear
2:53 AM 54.0 °F 48.0 °F 80% 30.18 in 10.0 mi SSE 3.5 mph - N/A   Clear
3:53 AM 52.0 °F 48.0 °F 86% 30.19 in 10.0 mi SSE 5.8 mph - N/A   Clear
4:53 AM 52.0 °F 48.0 °F 86% 30.19 in 10.0 mi SSE 5.8 mph - N/A   Clear
5:53 AM 51.1 °F 46.9 °F 86% 30.21 in 10.0 mi SSE 4.6 mph - N/A   Clear
6:53 AM 51.1 °F 46.9 °F 86% 30.22 in 10.0 mi SSE 4.6 mph - N/A   Clear
7:53 AM 52.0 °F 48.0 °F 86% 30.25 in 10.0 mi SSE 5.8 mph - N/A   Clear
8:53 AM 57.9 °F 52.0 °F 81% 30.25 in 10.0 mi South 5.8 mph - N/A   Clear
9:53 AM 64.0 °F 54.0 °F 70% 30.25 in 10.0 mi South 4.6 mph - N/A   Clear
10:53 AM 69.1 °F 52.0 °F 54% 30.25 in 10.0 mi SSW 10.4 mph - N/A   Clear
11:53 AM 73.0 °F 52.0 °F 48% 30.24 in 10.0 mi SSW 12.7 mph - N/A   Clear
12:00 PM 73.4 °F 51.8 °F 47% 30.25 in 1.8 mi SSW 9.2 mph - N/A   Haze
12:15 PM 73.4 °F 51.8 °F 47% 30.25 in 10.0 mi SW 10.4 mph - N/A   Clear
12:53 PM 73.9 °F 51.1 °F 45% 30.24 in 10.0 mi South 10.4 mph - N/A   Clear
1:53 PM 75.0 °F 52.0 °F 44% 30.22 in 10.0 mi SSW 6.9 mph 24.2 mph N/A   Clear
2:53 PM 75.9 °F 51.1 °F 42% 30.19 in 10.0 mi South 12.7 mph - N/A   Clear
3:53 PM 77.0 °F 51.1 °F 40% 30.18 in 10.0 mi SSW 12.7 mph - N/A   Clear
4:53 PM 77.0 °F 50.0 °F 39% 30.17 in 10.0 mi SSW 9.2 mph - N/A   Clear
5:53 PM 75.9 °F 48.9 °F 38% 30.17 in 10.0 mi SSW 10.4 mph - N/A   Clear
7:53 PM 69.1 °F 54.0 °F 58% 30.16 in 10.0 mi South 5.8 mph - N/A   Clear
8:53 PM 66.0 °F 53.1 °F 63% 30.17 in 10.0 mi South 3.5 mph - N/A   Clear
9:53 PM 62.1 °F 53.1 °F 72% 30.18 in 10.0 mi SSE 5.8 mph - N/A   Clear
10:53 PM 59.0 °F 52.0 °F 78% 30.18 in 10.0 mi SSE 5.8 mph - N/A   Clear
11:53 PM 59.0 °F 52.0 °F 78% 30.19 in 10.0 mi SSE 5.8 mph - N/A   Clear